N12KBM KLAX-KSNA

Flight info

Callsign N12KBM
Flight time 0h 18m
Altitude VFR/035
Route
Aircraft P28A/L-DOV/C

Departure

Time 2026-05-04 03:23
Airport Los Angeles International Airport (KLAX)

Arrival

Time 2026-05-04 03:41
Airport John Wayne Orange County International Airport (KSNA)
Time Latitude Longitude Altitude Speed Heading
2026-05-04 03:13 33.93326 -118.40327 118 ft 0 kts 39°
2026-05-04 03:15 33.93344 -118.40318 120 ft 6 kts 16°
2026-05-04 03:15 33.93388 -118.40305 120 ft 0 kts 23°
2026-05-04 03:16 33.93405 -118.40280 120 ft 15 kts 67°
2026-05-04 03:16 33.93424 -118.40125 119 ft 19 kts 83°
2026-05-04 03:17 33.93442 -118.39973 120 ft 19 kts 81°
2026-05-04 03:17 33.93469 -118.39692 120 ft 38 kts 85°
2026-05-04 03:17 33.93499 -118.39401 120 ft 29 kts 63°
2026-05-04 03:17 33.93544 -118.39367 120 ft 0 kts 354°
2026-05-04 03:18 33.93533 -118.39369 119 ft 6 kts
2026-05-04 03:19 33.93534 -118.39369 119 ft 0 kts 346°
2026-05-04 03:21 33.93557 -118.39376 120 ft 12 kts 349°
2026-05-04 03:21 33.93619 -118.39458 120 ft 2 kts 263°
2026-05-04 03:22 33.93619 -118.39459 120 ft 0 kts 263°
2026-05-04 03:22 33.93605 -118.39589 121 ft 46 kts 263°
2026-05-04 03:22 33.93555 -118.40205 139 ft 94 kts 266°
2026-05-04 03:22 33.93459 -118.41019 380 ft 105 kts 261°
2026-05-04 03:23 33.93324 -118.41945 577 ft 118 kts 260°
2026-05-04 03:23 33.93149 -118.42914 866 ft 119 kts 253°
2026-05-04 03:23 33.92624 -118.43595 1248 ft 109 kts 190°
2026-05-04 03:23 33.91900 -118.43266 1396 ft 127 kts 150°
2026-05-04 03:24 33.91115 -118.42786 1683 ft 124 kts 158°
2026-05-04 03:24 33.90318 -118.42438 1991 ft 121 kts 160°
2026-05-04 03:24 33.89528 -118.42034 2245 ft 121 kts 156°
2026-05-04 03:24 33.88765 -118.41658 2552 ft 121 kts 162°
2026-05-04 03:25 33.87963 -118.41286 2772 ft 124 kts 156°
2026-05-04 03:25 33.87175 -118.40845 2997 ft 126 kts 158°
2026-05-04 03:25 33.86590 -118.40160 3335 ft 115 kts 123°
2026-05-04 03:25 33.86146 -118.39397 3692 ft 108 kts 127°
2026-05-04 03:26 33.85714 -118.38682 4027 ft 103 kts 126°
2026-05-04 03:26 33.85269 -118.37995 4291 ft 107 kts 132°
2026-05-04 03:26 33.84759 -118.37289 4437 ft 120 kts 129°
2026-05-04 03:26 33.84183 -118.36453 4472 ft 135 kts 131°
2026-05-04 03:27 33.83554 -118.35597 4513 ft 143 kts 131°
2026-05-04 03:27 33.82884 -118.34663 4472 ft 151 kts 133°
2026-05-04 03:27 33.82153 -118.33789 4558 ft 147 kts 137°
2026-05-04 03:27 33.81410 -118.32933 4520 ft 154 kts 137°
2026-05-04 03:28 33.80600 -118.32032 4320 ft 163 kts 137°
2026-05-04 03:28 33.79856 -118.30992 4157 ft 162 kts 128°
2026-05-04 03:28 33.79196 -118.29942 4219 ft 153 kts 126°
2026-05-04 03:28 33.78611 -118.28918 4405 ft 143 kts 123°
2026-05-04 03:29 33.78078 -118.27933 4584 ft 139 kts 126°
2026-05-04 03:29 33.77500 -118.26952 3898 ft 178 kts 123°
2026-05-04 03:29 33.76868 -118.25630 3253 ft 188 kts 120°
2026-05-04 03:29 33.76303 -118.24307 3076 ft 171 kts 115°
2026-05-04 03:30 33.75823 -118.23035 2928 ft 169 kts 114°
2026-05-04 03:30 33.75426 -118.21730 2965 ft 146 kts 103°
2026-05-04 03:30 33.75214 -118.20593 3212 ft 143 kts 105°
2026-05-04 03:30 33.74964 -118.19443 3340 ft 144 kts 106°
2026-05-04 03:31 33.74653 -118.18231 3111 ft 162 kts 106°
2026-05-04 03:31 33.74475 -118.17356 3069 ft 160 kts 104°
2026-05-04 03:31 33.74197 -118.16067 2986 ft 161 kts 105°
2026-05-04 03:31 33.73902 -118.14761 2903 ft 161 kts 105°
2026-05-04 03:32 33.73610 -118.13549 2852 ft 160 kts 107°
2026-05-04 03:32 33.73248 -118.12277 2645 ft 154 kts 109°
2026-05-04 03:32 33.72933 -118.11230 2584 ft 125 kts 108°
2026-05-04 03:32 33.72661 -118.10116 2259 ft 150 kts 108°
2026-05-04 03:33 33.72240 -118.09006 2251 ft 140 kts 119°
2026-05-04 03:33 33.71633 -118.08104 2214 ft 138 kts 136°
2026-05-04 03:33 33.70945 -118.07337 2265 ft 134 kts 140°
2026-05-04 03:33 33.70225 -118.06550 2077 ft 146 kts 137°
2026-05-04 03:34 33.69512 -118.05696 1881 ft 144 kts 143°
2026-05-04 03:34 33.68830 -118.04848 1852 ft 138 kts 124°
2026-05-04 03:34 33.68240 -118.03914 1769 ft 141 kts 131°
2026-05-04 03:34 33.67552 -118.03065 1700 ft 142 kts 135°
2026-05-04 03:35 33.66854 -118.02242 1651 ft 138 kts 137°
2026-05-04 03:35 33.66157 -118.01435 1627 ft 136 kts 134°
2026-05-04 03:35 33.65647 -118.00539 1751 ft 127 kts 117°
2026-05-04 03:35 33.65351 -117.99569 1962 ft 114 kts 98°
2026-05-04 03:36 33.65601 -117.98773 2127 ft 111 kts 50°
2026-05-04 03:36 33.65642 -117.97922 2173 ft 119 kts 116°
2026-05-04 03:36 33.65544 -117.96937 2189 ft 127 kts 75°
2026-05-04 03:36 33.65945 -117.95906 2171 ft 142 kts 56°
2026-05-04 03:37 33.66547 -117.94950 2266 ft 145 kts 52°
2026-05-04 03:37 33.67178 -117.93984 2251 ft 152 kts 51°
2026-05-04 03:37 33.67876 -117.92941 2011 ft 162 kts 50°
2026-05-04 03:37 33.68563 -117.91888 2046 ft 154 kts 52°
2026-05-04 03:38 33.69200 -117.90868 2074 ft 156 kts 53°
2026-05-04 03:38 33.69867 -117.89812 1980 ft 159 kts 51°
2026-05-04 03:38 33.70566 -117.88778 1907 ft 160 kts 50°
2026-05-04 03:38 33.71278 -117.87747 1852 ft 160 kts 49°
2026-05-04 03:39 33.71975 -117.86794 1785 ft 135 kts 51°
2026-05-04 03:39 33.72162 -117.85869 1826 ft 106 kts 107°
2026-05-04 03:39 33.71769 -117.85074 1497 ft 124 kts 138°
2026-05-04 03:39 33.70973 -117.84706 1221 ft 125 kts 184°
2026-05-04 03:40 33.70144 -117.85127 769 ft 131 kts 215°
2026-05-04 03:40 33.69501 -117.85664 473 ft 97 kts 209°
2026-05-04 03:40 33.68965 -117.85992 319 ft 87 kts 208°
2026-05-04 03:40 33.68415 -117.86339 181 ft 90 kts 209°
2026-05-04 03:41 33.67894 -117.86675 56 ft 76 kts 208°
2026-05-04 03:41 33.67476 -117.86932 57 ft 62 kts 207°
2026-05-04 03:41 33.67170 -117.87129 54 ft 45 kts 185°
2026-05-04 03:41 33.67032 -117.87292 58 ft 20 kts 243°
2026-05-04 03:42 33.67004 -117.87346 59 ft 1 kts 301°
2026-05-04 03:42 33.67063 -117.87353 58 ft 16 kts 30°
2026-05-04 03:42 33.67223 -117.87259 54 ft 28 kts 27°
2026-05-04 03:42 33.67355 -117.87214 55 ft 18 kts 323°
2026-05-04 03:43 33.67373 -117.87238 54 ft 0 kts 299°